Location: Newark
(43.4306°N, 0.3089°E)
Time: 08:58:04
(UTC+00:00)

Transit 2A Rocket - Pass Details

Date: 30 August 2019
Orbit: 594 x 909 km, 66.7° (Epoch: 21 October)

Event Time Altitude Azimuth Distance (km) Brightness Sun altitude
Rises 01:03:24 0° 336° (NNW) 3,016 8.7 -35.4°
Reaches altitude 10° 01:06:10 10° 350° (N) 2,050 7.8 -35.3°
Enters shadow 01:08:31 21° 18° (NNE) 1,425 7.0 -35.1°
